User: anonymous   Login
Location: Steilacoom
(47.1700°N, 122.5700°W)
Time: 02:30:08
(UTC-08:00)
Language:

EO-79 - Orbit

View from above orbital plane
View from above orbital plane
View from above satellite
View from above satellite

Ground track
Ground track

The orbit data is extracted from the following two-line orbital elements,

1 40025U 14033R   20022.43022639  .00000132  00000-0  20023-4 0  9994
2 40025  97.9124 306.7995 0013769  65.6209 294.6443 14.89056991303727
Epoch (UTC): 22 January 2020 10:19:31
Eccentricity: 0.0013769
inclination: 97.9124°
perigee height: 591 km
apogee height: 610 km
right ascension of ascending node: 306.7995°
argument of perigee: 65.6209°
revolutions per day: 14.89056991
mean anomaly at epoch: 294.6443°
orbit number at epoch: 30372

The dashed part of the orbit path shows where the satellite is in the earth's shadow,  

DLR